Total_Precipitation_Accumulation
0.70 0.69 0.72 0.77 0.80 0.81 0.81 0.81 0.87 0.96 1.07 1.28 1.55 1.97 2.19 2.30 2.24 2.24 2.15 1.90 1.67 1.67 1.87 1.88 1.82 1.80 1.83 1.79 1.72 1.88 1.81 1.53 1.44 1.65 1.64 1.47 1.28 1.22 1.21 1.27 1.50 1.61 1.53
0.67 0.64 0.62 0.63 0.68 0.68 0.71 0.85 0.88 0.94 1.04 1.30 1.58 1.90 2.23 2.28 2.26 2.25 2.21 2.08 1.93 1.89 1.94 2.17 2.27 2.23 2.40 2.38 2.16 2.29 2.32 1.92 1.68 1.97 2.30 2.01 1.77 1.34 1.24 1.37 1.43 1.52 1.61
0.53 0.58 0.59 0.56 0.61 0.59 0.57 0.68 0.82 0.99 1.26 1.55 1.82 1.99 2.21 2.26 2.28 2.23 2.23 2.25 2.18 2.05 2.10 2.23 2.39 2.40 2.49 2.64 2.69 2.60 2.71 2.52 2.09 1.95 2.28 2.21 2.05 1.83 1.47 1.40 1.47 1.62 1.69
0.46 0.46 0.52 0.53 0.51 0.49 0.47 0.54 0.68 0.95 1.35 1.70 1.92 2.13 2.48 2.52 2.38 2.37 2.32 2.32 2.32 2.28 2.37 2.40 2.49 2.50 2.52 2.64 2.75 2.67 2.83 2.95 2.54 2.19 1.97 1.80 1.80 1.97 1.81 1.56 1.50 1.64 1.66
0.38 0.39 0.40 0.43 0.44 0.48 0.50 0.56 0.73 1.02 1.36 1.61 1.86 2.18 2.38 2.47 2.53 2.42 2.39 2.37 2.40 2.41 2.45 2.52 2.68 2.67 2.65 2.61 2.81 2.87 2.95 2.88 2.80 2.64 2.45 2.27 2.03 1.71 1.86 1.90 1.73 1.61 1.50
0.35 0.39 0.41 0.43 0.46 0.49 0.56 0.68 0.87 1.06 1.33 1.57 1.83 2.01 2.17 2.30 2.38 2.42 2.36 2.33 2.39 2.47 2.34 2.27 2.46 2.53 2.56 2.54 2.70 2.85 2.97 2.94 2.96 2.87 2.56 2.54 2.43 2.10 2.06 1.90 1.77 1.79 1.60
0.44 0.49 0.53 0.61 0.70 0.72 0.74 0.85 1.01 1.19 1.33 1.44 1.60 1.71 1.83 1.97 1.95 2.09 2.15 2.27 2.28 2.30 2.31 2.20 2.21 2.28 2.25 2.26 2.36 2.40 2.46 2.60 2.79 2.69 2.46 2.40 2.23 2.22 2.30 2.20 1.94 1.77 1.54
0.60 0.73 0.80 0.92 1.01 1.01 1.02 1.10 1.18 1.24 1.28 1.33 1.40 1.48 1.57 1.65 1.65 1.66 1.66 1.83 1.98 2.00 2.06 2.05 2.00 2.07 2.14 2.13 2.22 2.23 2.22 2.24 2.31 2.26 2.37 2.43 2.27 2.20 2.18 2.25 2.40 2.14 1.89
0.86 0.99 1.11 1.16 1.15 1.15 1.12 1.16 1.21 1.22 1.22 1.26 1.27 1.21 1.24 1.32 1.39 1.39 1.46 1.48 1.53 1.54 1.61 1.67 1.76 1.88 1.97 2.01 2.13 2.22 2.19 2.12 2.09 2.19 2.27 2.22 2.17 2.15 2.07 2.08 2.26 2.37 2.21
1.22 1.37 1.51 1.45 1.37 1.36 1.42 1.33 1.25 1.19 1.16 1.18 1.24 1.16 1.18 1.21 1.21 1.18 1.25 1.21 1.18 1.19 1.25 1.35 1.54 1.79 1.91 1.93 2.01 2.10 2.17 2.17 2.10 2.18 2.29 2.33 2.29 2.31 2.25 2.15 2.13 2.08 2.14
1.62 1.72 1.77 1.71 1.52 1.39 1.39 1.35 1.23 1.13 1.03 1.04 1.14 1.18 1.15 1.17 1.16 1.13 1.09 1.05 1.02 1.05 1.13 1.18 1.35 1.53 1.71 1.89 2.05 2.07 2.07 2.08 2.06 1.98 2.07 2.21 2.26 2.37 2.41 2.43 2.32 2.18 2.13
1.53 1.56 1.53 1.56 1.46 1.37 1.26 1.24 1.16 1.00 0.96 1.01 1.06 1.14 1.09 1.05 1.08 1.06 1.11 1.01 0.93 0.91 0.95 1.11 1.31 1.44 1.52 1.57 1.67 1.75 1.77 1.82 1.90 1.88 1.84 1.90 1.96 2.11 2.27 2.37 2.34 2.33 2.21
1.24 1.32 1.36 1.27 1.24 1.20 1.12 1.23 1.27 1.13 1.09 1.12 1.23 1.20 1.10 1.07 1.10 1.04 1.11 1.02 0.96 0.94 0.94 1.05 1.20 1.24 1.31 1.37 1.41 1.52 1.62 1.64 1.62 1.66 1.59 1.58 1.67 1.81 1.95 2.04 2.13 2.26 2.28
1.10 1.12 1.16 1.11 1.15 1.13 1.10 1.23 1.28 1.25 1.28 1.35 1.37 1.28 1.17 1.08 1.04 1.01 1.02 1.00 0.99 0.99 1.00 1.12 1.17 1.19 1.19 1.32 1.35 1.41 1.41 1.35 1.29 1.31 1.29 1.32 1.36 1.46 1.61 1.76 1.97 2.16 2.27
0.93 0.88 0.85 0.85 0.91 0.93 0.92 0.98 1.07 1.13 1.24 1.31 1.27 1.23 1.11 0.98 0.93 0.95 0.91 0.97 1.03 1.02 1.06 1.10 1.18 1.21 1.20 1.25 1.31 1.27 1.18 1.15 1.13 1.08 0.97 0.98 1.07 1.12 1.22 1.24 1.52 1.78 2.02
0.71 0.68 0.65 0.62 0.65 0.59 0.61 0.66 0.77 0.93 1.12 1.19 1.14 1.04 0.96 0.95 0.89 0.85 0.82 0.85 0.88 0.91 0.95 0.98 1.12 1.22 1.10 1.22 1.21 1.09 0.98 0.95 0.99 0.94 0.86 0.84 0.90 0.84 0.82 0.85 1.08 1.37 1.55
0.60 0.62 0.61 0.57 0.56 0.52 0.54 0.61 0.69 0.83 0.94 0.97 0.93 0.85 0.82 0.81 0.76 0.73 0.76 0.81 0.82 0.85 0.87 0.85 0.98 1.06 1.12 1.08 0.92 0.96 0.92 0.93 0.95 0.96 0.97 0.88 0.83 0.93 0.83 0.78 0.87 0.95 1.05
0.49 0.55 0.57 0.54 0.55 0.58 0.61 0.70 0.77 0.78 0.82 0.88 0.88 0.83 0.76 0.72 0.69 0.66 0.69 0.80 0.81 0.78 0.80 0.80 0.79 0.84 0.98 0.95 0.79 0.83 0.81 0.92 0.99 1.02 1.10 1.10 1.03 1.01 1.08 1.01 1.02 0.98 0.91
0.30 0.32 0.36 0.39 0.44 0.47 0.51 0.54 0.56 0.57 0.61 0.66 0.72 0.68 0.61 0.64 0.69 0.66 0.72 0.76 0.75 0.76 0.73 0.77 0.77 0.79 0.84 0.85 0.76 0.78 0.82 0.95 0.97 0.93 1.04 1.09 1.04 1.11 1.18 1.27 1.32 1.23 1.07
0.20 0.19 0.20 0.23 0.26 0.30 0.41 0.47 0.44 0.39 0.39 0.41 0.47 0.51 0.49 0.53 0.61 0.70 0.76 0.73 0.70 0.75 0.75 0.70 0.68 0.69 0.70 0.79 0.71 0.81 0.88 0.92 0.94 0.94 1.01 1.18 1.11 1.08 1.05 1.11 1.24 1.22 1.08
0.18 0.20 0.20 0.20 0.23 0.27 0.31 0.34 0.39 0.35 0.34 0.36 0.38 0.40 0.41 0.45 0.55 0.61 0.58 0.57 0.61 0.67 0.69 0.70 0.65 0.63 0.69 0.81 0.82 0.88 0.88 0.92 0.99 1.07 1.11 1.09 1.20 1.03 0.98 0.98 0.98 1.07 1.07
0.16 0.17 0.18 0.21 0.26 0.25 0.24 0.25 0.27 0.28 0.30 0.31 0.34 0.35 0.33 0.33 0.36 0.42 0.47 0.48 0.50 0.53 0.54 0.55 0.54 0.56 0.66 0.74 0.74 0.77 0.82 0.91 0.91 0.95 0.95 0.92 1.03 0.89 0.80 0.75 0.81 0.89 0.95
0.13 0.15 0.21 0.26 0.28 0.27 0.23 0.22 0.23 0.26 0.30 0.31 0.32 0.32 0.31 0.31 0.32 0.35 0.39 0.44 0.49 0.52 0.49 0.46 0.45 0.51 0.56 0.65 0.67 0.65 0.64 0.69 0.70 0.66 0.78 0.82 0.80 0.75 0.68 0.72 0.77 0.78 0.80
0.13 0.15 0.21 0.26 0.31 0.29 0.27 0.27 0.25 0.25 0.27 0.28 0.29 0.30 0.31 0.33 0.33 0.36 0.40 0.47 0.47 0.43 0.41 0.42 0.44 0.49 0.54 0.56 0.57 0.60 0.58 0.56 0.61 0.60 0.64 0.68 0.66 0.64 0.65 0.69 0.73 0.78 0.81
0.14 0.16 0.19 0.24 0.29 0.31 0.29 0.29 0.27 0.25 0.25 0.27 0.27 0.27 0.29 0.33 0.33 0.31 0.33 0.39 0.41 0.38 0.40 0.42 0.46 0.50 0.52 0.51 0.51 0.50 0.56 0.60 0.65 0.70 0.65 0.63 0.63 0.63 0.69 0.72 0.71 0.74 0.79
0.17 0.19 0.19 0.23 0.24 0.27 0.30 0.31 0.33 0.31 0.28 0.27 0.27 0.28 0.29 0.32 0.32 0.31 0.31 0.32 0.32 0.36 0.36 0.34 0.35 0.32 0.33 0.39 0.40 0.41 0.47 0.56 0.62 0.72 0.77 0.80 0.85 0.86 0.85 0.81 0.72 0.67 0.69